FW2602 Weather Reports


Display with metric or nautical units.
time (UTC)temp
F
wind
direction
speed
MPH
gust
MPH
rain 1hr
in
rain 24hr
in
rain mn
in
humidity
%
barometer
mb
20260509064552 43 82 0.0 5.0 0.00 0.04 0.00 65 1012.0
20260509064051 43 82 1.0 6.0 0.00 0.04 0.00 64 1012.0
20260509063551 42 84 3.0 6.0 0.00 0.04 0.00 65 1012.0
20260509063050 41 80 2.0 4.0 0.00 0.04 0.00 68 1012.1
20260509062549 41 95 0.0 1.0 0.00 0.04 0.00 70 1012.2
20260509062047 41 94 1.0 1.0 0.00 0.04 0.00 71 1012.2
20260509061554 40 94 0.0 1.0 0.00 0.04 0.00 70 1012.3
20260509061046 40 94 0.0 1.0 0.00 0.04 0.00 71 1012.4
20260509060545 40 94 0.0 1.0 0.00 0.04 0.00 73 1012.3
20260509060045 40 94 0.0 2.0 0.00 0.04 0.00 72 1012.4
20260509055544 40 95 1.0 2.0 0.00 0.04 0.00 72 1012.4
20260509055044 40 95 1.0 2.0 0.00 0.04 0.00 72 1012.5
20260509054546 40 95 1.0 1.0 0.00 0.04 0.00 73 1012.5
20260509054043 40 94 0.0 1.0 0.00 0.04 0.00 71 1012.6
20260509053543 40 96 0.0 1.0 0.00 0.04 0.00 72 1012.8
20260509053046 41 96 0.0 1.0 0.00 0.04 0.00 70 1012.8
20260509052543 41 96 0.0 1.0 0.00 0.04 0.00 71 1012.8
20260509052038 41 83 0.0 1.0 0.00 0.04 0.00 70 1012.8
20260509051540 41 84 0.0 1.0 0.00 0.04 0.00 70 1012.8
20260509051038 41 84 0.0 2.0 0.00 0.04 0.00 68 1012.8
20260509050537 41 84 0.0 2.0 0.00 0.04 0.00 70 1012.6
20260509050039 41 94 1.0 2.0 0.00 0.04 0.00 71 1012.7
20260509045535 41 91 1.0 1.0 0.00 0.04 0.00 72 1013.0
20260509045039 41 88 0.0 1.0 0.00 0.04 0.00 72 1012.9
20260509044536 41 87 0.0 1.0 0.00 0.04 0.00 73 1012.9
20260509044035 42 87 0.0 1.0 0.00 0.04 0.00 71 1013.0
20260509043536 42 88 1.0 1.0 0.00 0.04 0.00 71 1012.9
20260509043042 42 87 0.0 2.0 0.00 0.04 0.00 71 1012.8
20260509042531 43 88 0.0 2.0 0.00 0.04 0.00 70 1012.9
20260509042029 43 98 1.0 2.0 0.00 0.04 0.00 68 1012.8
20260509041529 43 81 0.0 2.0 0.00 0.04 0.00 67 1012.8
20260509041029 43 64 1.0 3.0 0.00 0.04 0.00 67 1012.8
20260509040526 43 84 1.0 2.0 0.00 0.04 0.00 68 1012.9
20260509040025 43 91 1.0 2.0 0.00 0.04 0.00 69 1012.9
20260509035525 43 90 0.0 1.0 0.00 0.04 0.04 70 1012.8
20260509035024 43 91 0.0 1.0 0.00 0.04 0.04 70 1012.8
20260509034525 43 91 0.0 2.0 0.00 0.04 0.04 69 1012.8
20260509034024 43 91 1.0 2.0 0.00 0.04 0.04 69 1012.8
20260509033524 43 86 1.0 2.0 0.00 0.04 0.04 69 1012.8
20260509033025 43 79 1.0 2.0 0.00 0.04 0.04 69 1012.8
20260509032525 43 89 1.0 2.0 0.00 0.04 0.04 69 1012.8
20260509032024 43 87 1.0 2.0 0.00 0.04 0.04 69 1012.8
20260509031523 43 87 1.0 2.0 0.00 0.04 0.04 69 1012.9
20260509031024 43 96 1.0 2.0 0.00 0.04 0.04 70 1012.9
20260509030526 43 98 0.0 1.0 0.00 0.04 0.04 69 1013.0
20260509030032 43 98 1.0 1.0 0.00 0.04 0.04 72 1012.9
20260509025522 43 98 0.0 1.0 0.00 0.04 0.04 71 1012.9
20260509025023 43 97 0.0 1.0 0.00 0.04 0.04 70 1012.9
20260509024522 43 98 1.0 1.0 0.00 0.04 0.04 71 1012.9
20260509024022 43 98 1.0 1.0 0.00 0.04 0.04 72 1013.0
20260509023522 43 98 0.0 1.0 0.00 0.04 0.04 71 1013.0
20260509023025 42 97 1.0 1.0 0.00 0.04 0.04 72 1013.1
20260509022523 42 98 0.0 1.0 0.00 0.04 0.04 72 1013.0
20260509022022 42 98 0.0 1.0 0.00 0.04 0.04 73 1013.0
20260509021523 42 98 1.0 1.0 0.00 0.04 0.04 72 1013.0
20260509021024 42 98 1.0 2.0 0.00 0.04 0.04 72 1013.1
20260509020523 41 98 1.0 2.0 0.00 0.04 0.04 72 1013.0
20260509020020 41 96 1.0 2.0 0.00 0.04 0.04 72 1012.9
20260509015522 41 96 2.0 2.0 0.00 0.04 0.04 71 1012.9
20260509015020 41 96 1.0 2.0 0.00 0.04 0.04 72 1012.8
20260509014519 41 96 1.0 1.0 0.00 0.04 0.04 73 1012.8
20260509014018 41 96 1.0 2.0 0.00 0.04 0.04 71 1012.7
20260509013521 41 96 1.0 2.0 0.00 0.04 0.04 70 1012.6
20260509013039 42 97 2.0 2.0 0.00 0.04 0.04 70 1012.6
20260509012517 42 98 1.0 2.0 0.00 0.04 0.04 70 1012.5
20260509012016 41 98 1.0 2.0 0.00 0.04 0.04 71 1012.5
20260509011513 41 93 1.0 2.0 0.00 0.04 0.04 73 1012.4
20260509011018 42 93 2.0 2.0 0.00 0.04 0.04 73 1012.4
20260509010524 42 93 1.0 2.0 0.00 0.04 0.04 72 1012.3
20260509010017 42 93 1.0 2.0 0.00 0.04 0.04 73 1012.3
20260509005520 42 93 1.0 2.0 0.00 0.04 0.04 72 1012.1
20260509005028 42 93 2.0 2.0 0.00 0.04 0.04 70 1012.0
20260509004532 42 93 1.0 2.0 0.00 0.04 0.04 71 1011.9
20260509004018 42 93 1.0 2.0 0.00 0.04 0.04 72 1011.8
20260509003506 42 94 1.0 2.0 0.00 0.04 0.04 71 1011.7
20260509003012 43 93 1.0 1.0 0.00 0.04 0.04 70 1011.7
20260509002507 43 84 1.0 1.0 0.00 0.04 0.04 69 1011.6
20260509002014 44 69 1.0 1.0 0.00 0.04 0.04 68 1011.7
20260509001524 44 70 1.0 1.0 0.00 0.04 0.04 67 1011.5
20260509001013 45 57 0.0 1.0 0.00 0.04 0.04 65 1011.5
20260509000522 46 57 0.0 1.0 0.00 0.04 0.04 63 1011.5
20260509000008 48 307 0.0 1.0 0.00 0.04 0.04 58 1011.4
20260508235522 49 293 0.0 0.0 0.00 0.04 0.04 55 1011.4
20260508235019 49 293 0.0 1.0 0.00 0.04 0.04 53 1011.3
20260508234510 50 294 0.0 2.0 0.00 0.04 0.04 54 1011.2
20260508234015 50 153 0.0 3.0 0.00 0.04 0.04 52 1011.2
20260508233526 50 305 0.0 4.0 0.00 0.04 0.04 54 1011.1
20260508233012 50 269 0.0 4.0 0.00 0.04 0.04 53 1011.2
20260508232523 51 293 0.0 4.0 0.00 0.04 0.04 55 1011.1
20260508232011 51 302 0.0 4.0 0.00 0.04 0.04 57 1011.1
20260508231522 51 302 0.0 4.0 0.00 0.04 0.04 54 1011.1
20260508231009 50 152 0.0 5.0 0.00 0.04 0.04 57 1011.1
20260508230517 50 281 2.0 8.0 0.00 0.04 0.04 57 1011.2
20260508225512 49 295 4.0 13.0 0.00 0.04 0.04 57 1011.0
20260508225017 49 294 7.0 13.0 0.00 0.04 0.04 56 1011.0
20260508224507 49 283 6.0 12.0 0.00 0.04 0.04 56 1011.0
20260508224014 50 308 4.0 10.0 0.00 0.04 0.04 58 1011.0
20260508223526 49 276 5.0 10.0 0.00 0.04 0.04 58 1011.1
20260508223019 50 289 6.0 10.0 0.00 0.04 0.04 60 1011.0
20260508222524 50 301 4.0 12.0 0.00 0.04 0.04 62 1011.1
20260508222010 49 307 5.0 12.0 0.00 0.04 0.04 60 1011.0
20260508221521 50 287 4.0 10.0 0.00 0.04 0.04 58 1011.1
20260508221008 50 312 6.0 11.0 0.00 0.04 0.04 60 1011.0
20260508220518 49 288 4.0 9.0 0.00 0.04 0.04 63 1011.0
20260508220020 49 281 4.0 7.0 0.00 0.04 0.04 61 1010.9
20260508215512 49 301 3.0 13.0 0.00 0.04 0.04 62 1010.9
20260508215018 49 291 4.0 13.0 0.00 0.04 0.04 63 1011.0
20260508214513 49 290 2.0 11.0 0.00 0.04 0.04 64 1011.0
20260508214023 48 293 7.0 11.0 0.00 0.04 0.04 67 1011.1
20260508213527 47 290 6.0 11.0 0.00 0.04 0.04 69 1011.1
20260508213018 47 296 6.0 11.0 0.00 0.04 0.04 66 1011.2
20260508212523 47 293 4.0 6.0 0.00 0.04 0.04 67 1011.1
20260508212013 47 295 3.0 7.0 0.00 0.04 0.04 69 1011.1
20260508211518 46 295 4.0 9.0 0.00 0.04 0.04 70 1011.2
20260508211006 46 287 5.0 9.0 0.00 0.04 0.04 70 1011.2
20260508210514 46 271 4.0 10.0 0.00 0.04 0.04 69 1011.2
20260508210019 46 293 5.0 11.0 0.00 0.04 0.04 68 1011.2
20260508205512 46 300 7.0 11.0 0.00 0.04 0.04 69 1011.2
20260508205018 46 290 7.0 13.0 0.00 0.04 0.04 69 1011.2
20260508204528 46 307 6.0 13.0 0.00 0.04 0.04 68 1011.2
20260508204012 46 292 6.0 13.0 0.00 0.04 0.04 71 1011.2
20260508203522 45 297 8.0 13.0 0.00 0.04 0.04 70 1011.2
20260508203011 45 311 8.0 13.0 0.00 0.04 0.04 71 1011.2
20260508202521 46 281 4.0 16.0 0.00 0.04 0.04 71 1011.2
20260508202008 46 295 8.0 16.0 0.00 0.04 0.04 72 1011.2
20260508201515 46 285 8.0 15.0 0.00 0.04 0.04 71 1011.1
20260508201014 46 264 8.0 15.0 0.00 0.04 0.04 69 1011.1
20260508200523 47 283 9.0 14.0 0.00 0.04 0.04 71 1011.2
20260508200011 45 280 8.0 14.0 0.00 0.04 0.04 68 1011.3
20260508195517 45 278 9.0 13.0 0.00 0.04 0.04 70 1011.4
20260508195020 45 276 7.0 18.0 0.00 0.04 0.04 72 1011.4
20260508194528 45 301 8.0 18.0 0.00 0.04 0.04 70 1011.3
20260508194011 46 291 7.0 15.0 0.00 0.04 0.04 72 1011.4
20260508193521 46 297 10.0 15.0 0.00 0.04 0.04 68 1011.3
20260508193008 46 285 8.0 13.0 0.00 0.04 0.04 71 1011.4
20260508192515 46 280 6.0 16.0 0.00 0.04 0.04 74 1011.3
20260508192014 45 283 10.0 16.0 0.00 0.04 0.04 72 1011.3
20260508191505 45 274 7.0 15.0 0.00 0.04 0.04 75 1011.4
20260508191009 45 283 8.0 14.0 0.00 0.04 0.04 75 1011.4
20260508190518 45 297 6.0 14.0 0.00 0.04 0.04 75 1011.6
20260508190008 45 297 6.0 16.0 0.00 0.04 0.04 77 1011.6
20260508185516 45 294 6.0 16.0 0.00 0.04 0.04 77 1011.5
20260508185021 45 256 6.0 11.0 0.00 0.04 0.04 81 1011.5
20260508184550 44 292 4.0 12.0 0.00 0.04 0.04 79 1011.6
20260508184014 44 301 5.0 12.0 0.00 0.04 0.04 83 1011.5
20260508183519 44 272 6.0 14.0 0.01 0.04 0.04 86 1011.5
20260508183108 44 273 7.0 14.0 0.01 0.04 0.04 92 1011.7
20260508182517 43 287 6.0 13.0 0.01 0.04 0.04 93 1011.5
20260508182017 43 293 6.0 13.0 0.02 0.04 0.04 94 1011.5
20260508181542 42 307 4.0 12.0 0.02 0.04 0.04 94 1011.5
20260508181013 42 293 6.0 10.0 0.03 0.04 0.04 95 1011.4
20260508180523 42 249 5.0 14.0 0.03 0.04 0.04 95 1011.5
20260508180008 41 308 1.0 6.0 0.03 0.04 0.04 95 1011.5
20260508175519 40 276 2.0 10.0 0.04 0.04 0.04 95 1011.6
20260508175020 40 264 4.0 10.0 0.04 0.04 0.04 96 1011.7
20260508174526 40 297 5.0 9.0 0.04 0.04 0.04 95 1011.9
20260508174012 39 281 4.0 7.0 0.04 0.04 0.04 95 1011.9
20260508173517 39 290 3.0 9.0 0.03 0.03 0.03 95 1012.1
20260508173022 39 293 2.0 9.0 0.03 0.03 0.03 95 1012.1
20260508172526 38 290 5.0 7.0 0.03 0.03 0.03 94 1012.1
20260508172011 38 284 0.0 4.0 0.02 0.02 0.02 93 1012.1
20260508171517 39 257 0.0 9.0 0.01 0.01 0.01 93 1012.2
20260508171022 39 302 2.0 9.0 0.01 0.01 0.01 93 1012.2
20260508170511 40 321 4.0 8.0 0.01 0.01 0.01 93 1012.1
20260508170021 40 270 2.0 10.0 0.01 0.01 0.01 90 1012.1
20260508165507 40 319 3.0 11.0 0.00 0.00 0.00 85 1012.2
20260508165013 41 274 6.0 11.0 0.00 0.00 0.00 82 1012.0
20260508164523 42 276 7.0 14.0 0.00 0.00 0.00 81 1012.1
20260508164010 42 294 8.0 14.0 0.00 0.00 0.00 82 1012.1
20260508163520 42 250 7.0 13.0 0.00 0.00 0.00 79 1012.1
20260508163018 42 285 5.0 13.0 0.00 0.00 0.00 79 1012.1
20260508162525 43 301 7.0 13.0 0.00 0.00 0.00 79 1012.2
20260508162018 42 271 6.0 15.0 0.00 0.00 0.00 77 1012.2
20260508161522 43 298 8.0 14.0 0.00 0.00 0.00 79 1012.0
20260508161009 42 274 6.0 14.0 0.00 0.00 0.00 78 1012.0
20260508160517 42 297 8.0 13.0 0.00 0.00 0.00 79 1012.1
20260508160022 42 302 5.0 14.0 0.00 0.00 0.00 80 1012.0
20260508155509 42 302 7.0 13.0 0.00 0.00 0.00 78 1012.1
20260508155016 42 283 7.0 13.0 0.00 0.00 0.00 76 1012.1
20260508154524 42 309 8.0 13.0 0.00 0.00 0.00 76 1012.1
20260508154012 42 301 8.0 17.0 0.00 0.00 0.00 74 1012.1
20260508153522 42 279 8.0 16.0 0.00 0.00 0.00 74 1012.1
20260508153008 42 285 10.0 15.0 0.00 0.00 0.00 70 1012.0
20260508152516 43 297 9.0 15.0 0.00 0.00 0.00 68 1011.9
20260508152020 43 274 8.0 15.0 0.00 0.00 0.00 65 1011.7
20260508151511 43 297 8.0 13.0 0.00 0.00 0.00 64 1011.7
20260508151015 43 276 1.0 13.0 0.00 0.00 0.00 60 1011.4
20260508150529 44 292 7.0 13.0 0.00 0.00 0.00 58 1011.4
20260508150018 45 315 1.0 10.0 0.00 0.00 0.00 61 1011.3
20260508145517 45 295 4.0 6.0 0.00 0.00 0.00 61 1011.2
20260508145020 45 300 1.0 6.0 0.00 0.00 0.00 62 1011.2
20260508144544 45 295 4.0 12.0 0.00 0.00 0.00 63 1011.1
20260508144013 45 298 6.0 12.0 0.00 0.00 0.00 63 1011.2
20260508143523 44 300 2.0 8.0 0.00 0.00 0.00 60 1011.1
20260508143022 45 285 4.0 8.0 0.00 0.00 0.00 60 1011.1
20260508142511 45 301 3.0 6.0 0.00 0.00 0.00 63 1011.0
20260508142033 45 289 1.0 7.0 0.00 0.00 0.00 63 1011.0
20260508141512 44 290 1.0 9.0 0.00 0.00 0.00 60 1010.9
20260508141018 45 283 5.0 9.0 0.00 0.00 0.00 62 1010.8
20260508140504 45 290 0.0 5.0 0.00 0.00 0.00 63 1010.8
20260508140023 44 82 0.0 5.0 0.00 0.00 0.00 64 1010.9
20260508135508 43 281 1.0 5.0 0.00 0.00 0.00 63 1011.1
20260508135018 43 273 0.0 6.0 0.00 0.00 0.00 64 1011.1
20260508134505 43 293 4.0 7.0 0.00 0.00 0.00 65 1011.2
20260508134113 43 284 1.0 7.0 0.00 0.00 0.00 66 1011.3
20260508133522 43 281 4.0 7.0 0.00 0.00 0.00 66 1011.2
20260508133019 43 315 2.0 9.0 0.00 0.00 0.00 66 1011.3
20260508132525 43 279 2.0 6.0 0.00 0.00 0.00 65 1011.1
20260508132013 43 307 0.0 3.0 0.00 0.00 0.00 66 1011.1
20260508131525 42 307 0.0 6.0 0.00 0.00 0.00 69 1011.1
20260508131010 42 297 2.0 7.0 0.00 0.00 0.00 70 1011.1
20260508130521 42 276 3.0 7.0 0.00 0.00 0.00 70 1011.1
20260508130014 42 290 2.0 8.0 0.00 0.00 0.00 70 1011.2
20260508125523 41 294 4.0 11.0 0.00 0.00 0.00 71 1011.4
20260508125011 41 290 5.0 10.0 0.00 0.00 0.00 72 1011.4
20260508124519 41 307 4.0 8.0 0.00 0.00 0.00 72 1011.6
20260508124005 41 293 4.0 8.0 0.00 0.00 0.00 73 1011.6
20260508123519 40 295 3.0 8.0 0.00 0.00 0.00 74 1011.6
20260508123017 40 302 4.0 8.0 0.00 0.00 0.00 74 1011.7
20260508122524 40 294 4.0 9.0 0.00 0.00 0.00 74 1011.6
20260508122053 40 290 5.0 9.0 0.00 0.00 0.00 74 1011.6
20260508121545 40 295 4.0 7.0 0.00 0.00 0.00 77 1011.5
20260508121045 39 306 3.0 7.0 0.00 0.00 0.00 77 1011.4
20260508120544 39 255 1.0 6.0 0.00 0.00 0.00 78 1011.3
20260508120043 39 273 3.0 6.0 0.00 0.00 0.00 80 1011.1
20260508115544 38 250 0.0 7.0 0.00 0.00 0.00 81 1011.3
20260508115042 38 287 3.0 6.0 0.00 0.00 0.00 83 1011.6
20260508114542 38 305 3.0 6.0 0.00 0.00 0.00 83 1011.6
20260508114042 38 286 3.0 8.0 0.00 0.00 0.00 84 1011.7
20260508113542 38 297 5.0 8.0 0.00 0.00 0.00 83 1011.7
20260508113058 38 286 3.0 9.0 0.00 0.00 0.00 84 1011.7
20260508112540 38 295 3.0 6.0 0.00 0.00 0.00 84 1011.6
20260508112040 38 284 2.0 8.0 0.00 0.00 0.00 85 1011.5
20260508111544 38 275 2.0 8.0 0.00 0.00 0.00 85 1011.4
20260508111040 37 295 0.0 4.0 0.00 0.00 0.00 85 1011.4
20260508110539 37 294 2.0 4.0 0.00 0.00 0.00 85 1011.6
20260508110049 37 288 1.0 4.0 0.00 0.00 0.00 85 1011.5
20260508105539 37 305 1.0 4.0 0.00 0.00 0.00 86 1011.4
20260508105037 37 309 0.0 4.0 0.00 0.00 0.00 86 1011.4
20260508104539 37 293 1.0 7.0 0.00 0.00 0.00 86 1011.3
20260508104036 37 264 3.0 7.0 0.00 0.00 0.00 86 1011.3
20260508103536 37 287 3.0 7.0 0.00 0.00 0.00 86 1011.3
20260508103035 37 273 3.0 8.0 0.00 0.00 0.00 86 1011.3
20260508102533 37 292 4.0 8.0 0.00 0.00 0.00 86 1011.2
20260508102033 37 240 3.0 8.0 0.00 0.00 0.00 86 1011.1
20260508101533 37 298 4.0 8.0 0.00 0.00 0.00 85 1011.2
20260508101031 37 270 3.0 8.0 0.00 0.00 0.00 84 1011.2
20260508100529 37 298 4.0 9.0 0.00 0.00 0.00 83 1011.2
20260508100030 38 275 6.0 10.0 0.00 0.00 0.00 81 1011.1
20260508095526 38 245 6.0 10.0 0.00 0.00 0.00 79 1011.1
20260508095025 38 311 5.0 9.0 0.00 0.00 0.00 77 1011.0
20260508094525 39 300 6.0 9.0 0.00 0.00 0.00 76 1011.0
20260508094023 39 300 6.0 10.0 0.00 0.00 0.00 75 1010.9
20260508093523 39 277 5.0 10.0 0.00 0.00 0.00 74 1010.9
20260508093027 39 303 5.0 10.0 0.00 0.00 0.00 74 1010.7
20260508092520 39 273 5.0 8.0 0.00 0.00 0.00 73 1010.7
20260508092019 39 298 3.0 8.0 0.00 0.00 0.00 73 1010.7
20260508091520 39 271 4.0 8.0 0.00 0.00 0.00 72 1010.7
20260508091018 39 298 3.0 7.0 0.00 0.00 0.00 72 1010.6
20260508090517 39 299 3.0 8.0 0.00 0.00 0.00 71 1010.6
20260508090024 39 288 5.0 8.0 0.00 0.00 0.00 71 1010.6
20260508085515 39 300 5.0 9.0 0.00 0.00 0.00 70 1010.5
20260508085017 39 272 5.0 14.0 0.00 0.00 0.00 69 1010.5
20260508084514 39 284 5.0 14.0 0.00 0.00 0.00 68 1010.5
20260508084013 39 256 4.0 9.0 0.00 0.00 0.00 67 1010.4
20260508083512 39 295 4.0 9.0 0.00 0.00 0.00 67 1010.4
20260508083012 40 292 4.0 9.0 0.00 0.00 0.00 65 1010.3
20260508082514 40 285 4.0 10.0 0.00 0.00 0.00 65 1010.2
20260508082011 40 283 5.0 10.0 0.00 0.00 0.00 64 1010.2
20260508081512 40 291 4.0 9.0 0.00 0.00 0.00 64 1010.2
20260508081011 40 312 5.0 9.0 0.00 0.00 0.00 64 1010.2
20260508080514 40 302 4.0 11.0 0.00 0.00 0.00 64 1010.2
20260508080011 40 276 5.0 11.0 0.00 0.00 0.00 64 1010.2
20260508075506 40 312 5.0 9.0 0.00 0.00 0.00 65 1010.2
20260508075010 39 276 4.0 8.0 0.00 0.00 0.00 64 1010.0
20260508074515 39 266 4.0 7.0 0.00 0.00 0.00 64 1010.0
20260508074004 39 307 3.0 7.0 0.00 0.00 0.00 65 1010.0
20260508073503 39 292 2.0 5.0 0.00 0.00 0.00 64 1009.9
20260508073001 39 286 2.0 5.0 0.00 0.00 0.00 64 1010.0
20260508072502 39 298 0.0 4.0 0.00 0.00 0.00 64 1009.9
20260508072101 39 226 0.0 3.0 0.00 0.00 0.00 65 1009.9
20260508071605 39 288 0.0 3.0 0.00 0.00 0.00 64 1009.9
20260508071100 38 271 1.0 3.0 0.00 0.00 0.00 65 1009.8
20260508070559 38 266 0.0 3.0 0.00 0.00 0.00 66 1009.8
20260508070058 38 208 0.0 1.0 0.00 0.00 0.00 66 1009.8
20260508065558 38 114 0.0 0.0 0.00 0.00 0.00 66 1009.7
20260508065057 38 114 0.0 1.0 0.00 0.00 0.00 65 1009.7